KB6OQJ Weather Reports


Display with metric or nautical units.
time (UTC)temp
F
wind
direction
speed
MPH
gust
MPH
rain 1hr
in
rain 24hr
in
rain mn
in
humidity
%
barometer
mb
20260901233004 79 300 5.0 17.0 0.00 0.00 0.00 41 877.6
20260901232004 79 294 7.0 14.0 0.00 0.00 0.00 41 877.6
20260901231004 80 270 5.0 16.0 0.00 0.00 0.00 40 877.6
20260901230004 79 294 6.0 17.0 0.00 0.00 0.00 41 877.6
20260901225004 80 296 4.0 20.0 0.00 0.00 0.00 41 877.6
20260901223005 80 298 8.0 17.0 0.00 0.00 0.00 40 877.0
20260901222004 81 277 5.0 17.0 0.00 0.00 0.00 40 889.3
20260901221003 81 273 5.0 17.0 0.00 0.00 0.00 40 889.3
20260901220004 82 301 6.0 17.0 0.00 0.00 0.00 39 898.6
20260901213004 82 287 9.0 17.0 0.00 0.00 0.00 38 1043.8
20260901210004 83 294 9.0 16.0 0.00 0.00 0.00 38 839.8
20260901205003 82 320 3.0 13.0 0.00 0.00 0.00 39 839.8
20260901204003 82 292 7.0 14.0 0.00 0.00 0.00 39 839.8
20260901203004 81 276 0.0 1.0 0.00 0.00 0.00 39 839.8
20260901202004 80 240 1.0 12.0 0.00 0.00 0.00 40 839.8
20260901201004 80 220 3.0 12.0 0.00 0.00 0.00 40 839.8
20260901200003 80 294 3.0 10.0 0.00 0.00 0.00 41 839.8
20260901195003 80 229 0.0 0.0 0.00 0.00 0.00 43 839.8
20260901194004 79 264 0.0 0.0 0.00 0.00 0.00 45 928.8
20260901193003 78 245 0.0 0.0 0.00 0.00 0.00 45 936.9
20260901192003 78 5 0.0 0.0 0.00 0.00 0.00 46 936.9
20260901190003 76 205 0.0 0.0 0.00 0.00 0.00 48 936.9
20260901185004 75 218 0.0 0.0 0.00 0.00 0.00 49 936.9
20260901184004 75 177 0.0 0.0 0.00 0.00 0.00 50 936.9
20260901183004 75 239 0.0 0.0 0.00 0.00 0.00 51 936.9
20260901182004 74 210 0.0 7.0 0.00 0.00 0.00 53 936.9
20260901180004 72 52 0.0 0.0 0.00 0.00 0.00 56 936.9
20260901175003 94 96 0.0 0.0 0.00 0.00 0.00 35 936.9
20260901174006 94 78 0.0 0.0 0.00 0.00 0.00 35 936.9
20260901173003 94 257 0.0 0.0 0.00 0.00 0.00 35 936.9
20260901172004 94 55 0.0 0.0 0.00 0.00 0.00 35 936.9
20260901171004 94 354 0.0 0.0 0.00 0.00 0.00 35 936.9
20260901170004 94 326 0.0 0.0 0.00 0.00 0.00 35 936.9
20260901165004 94 41 0.0 0.0 0.00 0.00 0.00 35 936.9
20260901164004 94 83 0.0 0.0 0.00 0.00 0.00 35 936.9
20260901163004 94 96 0.0 0.0 0.00 0.00 0.00 35 936.9
20260901160004 94 53 0.0 0.0 0.00 0.00 0.00 35 936.9
20260901155004 94 92 0.0 0.0 0.00 0.00 0.00 35 936.9
20260901154004 94 89 0.0 0.0 0.00 0.00 0.00 35 936.9
20260901153004 94 59 0.0 0.0 0.00 0.00 0.00 35 936.9
20260901152004 94 81 0.0 0.0 0.00 0.00 0.00 35 936.9
20260901151003 94 128 0.0 0.0 0.00 0.00 0.00 35 936.9
20260901150003 94 128 0.0 0.0 0.00 0.00 0.00 35 936.9
20260901145003 94 128 0.0 0.0 0.00 0.00 0.00 35 936.9
20260901144003 94 128 0.0 0.0 0.00 0.00 0.00 35 936.9
20260901143004 94 128 0.0 0.0 0.00 0.00 0.00 35 936.9
20260901141004 94 127 0.0 0.0 0.00 0.00 0.00 35 936.9
20260901135003 94 128 0.0 0.0 0.00 0.00 0.00 35 936.9
20260901134003 94 128 0.0 0.0 0.00 0.00 0.00 35 936.9
20260901133004 94 128 0.0 0.0 0.00 0.00 0.00 35 936.9
20260901132004 94 128 0.0 0.0 0.00 0.00 0.00 35 936.9
20260901130004 94 130 0.0 0.0 0.00 0.00 0.00 35 936.9
20260901125003 94 134 0.0 0.0 0.00 0.00 0.00 35 936.9
20260901123004 94 135 0.0 0.0 0.00 0.00 0.00 35 936.9
20260901122003 94 135 0.0 0.0 0.00 0.00 0.00 35 936.9
20260901121004 94 135 0.0 0.0 0.00 0.00 0.00 35 936.9
20260901120004 94 135 0.0 0.0 0.00 0.00 0.00 35 936.9
20260901115004 94 135 0.0 0.0 0.00 0.00 0.00 35 936.9
20260901114004 94 134 0.0 0.0 0.00 0.00 0.00 35 936.9
20260901113003 94 133 0.0 0.0 0.00 0.00 0.00 35 936.9
20260901112004 94 76 0.0 0.0 0.00 0.00 0.00 35 936.9
20260901111003 94 5 0.0 0.0 0.00 0.00 0.00 35 936.9
20260901110003 94 5 0.0 0.0 0.00 0.00 0.00 35 936.9
20260901103003 94 5 0.0 0.0 0.00 0.00 0.00 35 936.9
20260901102004 94 5 0.0 0.0 0.00 0.00 0.00 35 936.9
20260901101004 94 5 0.0 0.0 0.00 0.00 0.00 35 936.9
20260901100004 94 5 0.0 0.0 0.00 0.00 0.00 35 936.9
20260901095004 94 5 0.0 0.0 0.00 0.00 0.00 35 936.9
20260901094004 94 5 0.0 0.0 0.00 0.00 0.00 35 936.9
20260901093003 94 5 0.0 0.0 0.00 0.00 0.00 35 936.9
20260901092004 94 5 0.0 0.0 0.00 0.00 0.00 35 936.9
20260901091003 94 5 0.0 0.0 0.00 0.00 0.00 35 936.9
20260901090003 94 5 0.0 0.0 0.00 0.00 0.00 35 936.9
20260901085003 94 5 0.0 0.0 0.00 0.00 0.00 35 936.9
20260901084003 94 5 0.0 0.0 0.00 0.00 0.00 35 936.9
20260901082004 94 355 0.0 0.0 0.00 0.00 0.00 35 936.9
20260901081004 94 315 0.0 0.0 0.00 0.00 0.00 35 936.9
20260901080003 94 295 0.0 0.0 0.00 0.00 0.00 35 936.9
20260901075003 94 295 0.0 0.0 0.00 0.00 0.00 35 936.9
20260901074004 94 295 0.0 0.0 0.00 0.00 0.00 35 936.9
20260901073004 94 295 0.0 0.0 0.00 0.00 0.00 35 936.9
20260901071005 94 295 0.0 0.0 0.00 0.00 0.00 35 936.9
20260901065004 94 295 0.0 0.0 0.00 0.00 0.00 35 936.9
20260901064004 94 295 0.0 0.0 0.00 0.00 0.00 35 936.9
20260901063004 94 295 0.0 0.0 0.00 0.00 0.00 35 936.9
20260901062004 94 295 0.0 0.0 0.00 0.00 0.00 35 936.9
20260901061004 94 295 0.0 0.0 0.00 0.00 0.00 35 936.9
20260901060004 94 295 0.0 0.0 0.00 0.00 0.00 35 936.9
20260901055004 94 295 0.0 0.0 0.00 0.00 0.00 35 936.9
20260901054004 94 295 0.0 0.0 0.00 0.00 0.00 35 936.9
20260901053003 94 295 0.0 0.0 0.00 0.00 0.00 35 936.9
20260901050003 94 295 0.0 0.0 0.00 0.00 0.00 35 936.9
20260901045004 94 295 0.0 0.0 0.00 0.00 0.00 35 936.9
20260901044004 94 295 0.0 0.0 0.00 0.00 0.00 35 936.9
20260901043003 94 294 0.0 0.0 0.00 0.00 0.00 35 936.9
20260901041003 94 286 0.0 0.0 0.00 0.00 0.00 35 936.9
20260901040003 94 272 0.0 2.0 0.00 0.00 0.00 35 936.9
20260901035003 94 306 0.0 3.0 0.00 0.00 0.00 35 936.9
20260901034003 94 286 1.0 6.0 0.00 0.00 0.00 35 936.9
20260901033003 94 293 2.0 10.0 0.00 0.00 0.00 35 936.9
20260901032003 94 285 4.0 10.0 0.00 0.00 0.00 35 936.9
20260901031004 94 275 1.0 12.0 0.00 0.00 0.00 35 936.9
20260901030003 94 289 1.0 12.0 0.00 0.00 0.00 35 936.9
20260901025004 94 319 2.0 5.0 0.00 0.00 0.00 35 936.9
20260901024003 94 306 0.0 0.0 0.00 0.00 0.00 35 936.9
20260901023003 94 303 1.0 9.0 0.00 0.00 0.00 35 936.9
20260901022003 94 285 3.0 9.0 0.00 0.00 0.00 35 936.9
20260901021004 94 297 1.0 10.0 0.00 0.00 0.00 35 936.9
20260901020004 94 295 6.0 12.0 0.00 0.00 0.00 35 936.9
20260901015004 94 291 1.0 5.0 0.00 0.00 0.00 35 936.9
20260901013004 94 279 5.0 12.0 0.00 0.00 0.00 35 936.9
20260901012003 94 299 3.0 12.0 0.00 0.00 0.00 35 936.9
20260901011004 94 284 3.0 7.0 0.00 0.00 0.00 35 936.9
20260901010004 94 314 2.0 14.0 0.00 0.00 0.00 35 936.9
20260901005003 94 318 2.0 13.0 0.00 0.00 0.00 35 936.9
20260901004004 94 302 5.0 13.0 0.00 0.00 0.00 35 936.9
20260901003003 94 301 6.0 14.0 0.00 0.00 0.00 35 936.9
20260901002004 94 299 7.0 16.0 0.00 0.00 0.00 35 936.9
20260901001004 94 307 7.0 16.0 0.00 0.00 0.00 35 936.9
20260901000003 94 319 6.0 18.0 0.00 0.00 0.00 35 936.9
20260831235004 94 296 7.0 16.0 0.00 0.00 0.00 35 936.9